Date String (YYYY-MM-DD hh:mm:ss) UTC,Instrument flags,Ambient pressure (hPa),Sample flow (lpm),Bypass flow (lpm),Sample temperature (°C),Ambient temperature (°C),ASC tube jacket temperature (°C),LED temperature (°C),Box temperature (°C),Sample RH (%),Span deviation,Mass concentration (μg/m³),Mass concentration (μg/m³),Mass concentration (μg/m³)
DateTimeUTC,F1_M11,P_M11,Q1_M11,Q2_M11,T1_M11,T2_M11,T3_M11,T4_M11,T5_M11,U1_M11,ZSPAN_M11,X2_M11,X0_M11,X1_M11
2021-09-28 02:00:00,,0824.1,4.99,0.00,29.2,27.9,00.0,38.2,31.0,12.8,0000.0,0005.95,0019.14,0004.52
2021-09-28 02:01:00,,0824.2,5.01,0.00,29.3,28.1,00.0,38.2,31.1,12.7,0000.1,0005.98,0019.36,0004.52
2021-09-28 02:02:00,,0824.2,4.99,0.00,29.3,28.3,00.0,38.3,31.2,12.7,0000.3,0006.02,0019.47,0004.53
2021-09-28 02:03:00,,0824.1,4.99,0.00,29.4,28.5,00.0,38.3,31.3,12.6,0000.3,0006.02,0018.27,0004.54
2021-09-28 02:04:00,,0824.2,5.00,0.00,29.4,28.6,00.0,38.3,31.3,12.5,-000.1,0005.96,0016.47,0004.54
2021-09-28 02:05:00,,0824.2,5.02,0.00,29.5,28.3,00.0,38.4,31.2,12.5,-000.0,0005.90,0015.68,0004.56
2021-09-28 02:06:00,,0824.2,4.99,0.00,29.3,26.3,00.0,38.3,30.7,12.5,0000.7,0005.89,0015.20,0004.58
2021-09-28 02:07:00,,0824.2,4.99,0.00,29.1,25.1,00.0,38.3,30.4,12.7,0001.3,0005.85,0015.88,0004.59
2021-09-28 02:08:00,,0824.2,5.01,0.00,29.1,25.4,00.0,38.3,30.4,12.8,0001.7,0005.93,0016.04,0004.60
2021-09-28 02:09:00,,0824.2,4.99,0.00,29.0,25.9,00.0,38.2,30.5,12.7,0002.1,0005.93,0015.36,0004.59
2021-09-28 02:10:00,,0824.2,5.00,0.00,29.0,26.4,00.0,38.2,30.6,12.7,0002.3,0005.96,0015.19,0004.57
2021-09-28 02:11:00,,0824.2,5.01,0.00,29.0,26.9,00.0,38.2,30.7,12.7,0002.0,0005.98,0014.97,0004.57
2021-09-28 02:12:00,,0824.3,5.00,0.00,29.0,27.3,00.0,38.2,30.8,12.7,0001.9,0005.88,0014.80,0004.56
2021-09-28 02:13:00,,0824.3,5.02,0.00,29.1,27.6,00.0,38.2,30.9,12.8,0000.3,0005.86,0014.63,0004.55
2021-09-28 02:14:00,,0824.3,4.98,0.00,29.1,27.8,00.0,38.2,31.0,12.6,0000.0,0005.92,0015.17,0004.56
2021-09-28 02:15:00,,0824.3,5.01,0.00,29.2,28.1,00.0,38.2,31.1,12.6,0000.0,0005.97,0015.76,0004.56
2021-09-28 02:16:00,,0824.4,5.00,0.00,29.2,28.2,00.0,38.2,31.1,12.7,0000.0,0006.01,0016.48,0004.57
2021-09-28 02:17:00,,0824.2,5.01,0.00,29.3,28.4,00.0,38.2,31.1,12.6,0000.0,0006.01,0017.16,0004.56
2021-09-28 02:18:00,,0824.2,5.00,0.00,29.3,28.5,00.0,38.3,31.2,12.5,0000.0,0005.99,0016.88,0004.56
2021-09-28 02:19:00,,0824.3,4.99,0.00,29.4,28.6,00.0,38.3,31.3,12.5,0000.0,0005.93,0016.71,0004.53
2021-09-28 02:20:00,,0824.3,4.99,0.00,29.4,28.7,00.0,38.3,31.3,12.4,0000.0,0005.89,0017.41,0004.55
2021-09-28 02:21:00,,0824.2,5.01,0.00,29.5,28.4,00.0,38.3,31.3,12.4,0000.0,0005.87,0017.64,0004.55
2021-09-28 02:22:00,,0824.2,5.00,0.00,29.4,26.6,00.0,38.3,30.8,12.4,0000.0,0005.84,0017.96,0004.55
2021-09-28 02:23:00,,0824.2,4.99,0.00,29.2,26.2,00.0,38.3,30.7,12.5,0000.0,0005.85,0018.21,0004.54
2021-09-28 02:24:00,,0824.3,5.00,0.00,29.2,26.4,00.0,38.3,30.7,12.5,0000.0,0005.82,0017.89,0004.53
2021-09-28 02:25:00,,0824.3,5.00,0.00,29.2,26.8,00.0,38.3,30.8,12.5,0000.0,0005.78,0016.91,0004.53
2021-09-28 02:26:00,,0824.3,5.01,0.00,29.2,27.2,00.0,38.3,30.9,12.5,0000.0,0005.75,0016.45,0004.51
2021-09-28 02:27:00,,0824.3,4.99,0.00,29.2,27.6,00.0,38.3,31.0,12.5,0000.0,0005.71,0016.17,0004.50
2021-09-28 02:28:00,,0824.3,5.01,0.00,29.2,27.8,00.0,38.3,31.0,12.4,0000.3,0005.72,0016.48,0004.49
2021-09-28 02:29:00,,0824.3,5.00,0.00,29.3,28.1,00.0,38.3,31.1,12.4,0000.4,0005.73,0015.99,0004.48
2021-09-28 02:30:00,,0824.3,4.98,0.00,29.3,28.3,00.0,38.3,31.2,12.4,0001.1,0005.69,0015.86,0004.44
2021-09-28 02:31:00,,0824.3,4.99,0.00,29.4,28.4,00.0,38.3,31.2,12.3,0001.3,0005.66,0015.70,0004.39
2021-09-28 02:32:00,,0824.4,5.00,0.00,29.4,28.6,00.0,38.3,31.3,12.4,0000.8,0005.63,0015.67,0004.34
2021-09-28 02:33:00,,0824.4,5.00,0.00,29.5,28.7,00.0,38.4,31.3,12.4,0001.4,0005.63,0016.07,0004.31
2021-09-28 02:34:00,,0824.3,5.00,0.00,29.5,28.0,00.0,38.4,31.2,12.4,0000.9,0005.66,0016.51,0004.28
2021-09-28 02:35:00,,0824.3,4.99,0.00,29.4,26.4,00.0,38.4,30.7,12.4,0000.4,0005.62,0016.66,0004.25
2021-09-28 02:36:00,,0824.4,5.01,0.00,29.3,26.2,00.0,38.4,30.7,12.4,0000.4,0005.63,0017.49,0004.21
2021-09-28 02:37:00,,0824.4,5.00,0.00,29.2,26.5,00.0,38.3,30.7,12.4,0000.3,0005.61,0019.09,0004.17
2021-09-28 02:38:00,,0824.4,4.99,0.00,29.2,27.0,00.0,38.3,30.8,12.5,0000.0,0005.61,0019.66,0004.13
2021-09-28 02:39:00,,0824.4,5.01,0.00,29.2,27.3,00.0,38.3,30.9,12.5,0000.2,0005.53,0019.26,0004.08
2021-09-28 02:40:00,,0824.4,5.00,0.00,29.2,27.7,00.0,38.3,31.0,12.5,0000.0,0005.48,0019.25,0004.04
2021-09-28 02:41:00,,0824.4,5.00,0.00,29.3,27.9,00.0,38.3,31.1,12.5,0000.0,0005.47,0019.42,0004.03
2021-09-28 02:42:00,,0824.4,5.00,0.00,29.3,28.1,00.0,38.3,31.2,12.4,0000.0,0005.45,0019.07,0004.03
2021-09-28 02:43:00,,0824.4,5.00,0.00,29.4,28.3,00.0,38.3,31.2,12.4,0000.0,0005.41,0018.94,0004.03
2021-09-28 02:44:00,,0824.4,5.00,0.00,29.4,28.5,00.0,38.4,31.3,12.3,0000.0,0005.39,0018.68,0004.02
2021-09-28 02:45:00,,0824.4,5.00,0.00,29.4,28.6,00.0,38.4,31.3,12.4,0000.0,0005.37,0017.67,0004.01
2021-09-28 02:46:00,,0824.4,5.00,0.00,29.5,28.7,00.0,38.4,31.4,12.3,0000.0,0005.36,0018.02,0004.02
2021-09-28 02:47:00,,0824.4,4.99,0.00,29.5,27.7,00.0,38.4,31.1,12.3,0000.0,0005.31,0017.58,0004.00
2021-09-28 02:48:00,,0824.3,5.01,0.00,29.3,26.2,00.0,38.4,30.7,12.4,0001.2,0005.28,0016.25,0003.99
2021-09-28 02:49:00,,0824.4,4.99,0.00,29.3,26.3,00.0,38.4,30.7,12.4,0001.6,0005.26,0015.51,0003.98
2021-09-28 02:50:00,,0824.4,5.00,0.00,29.2,26.7,00.0,38.4,30.8,12.4,0001.8,0005.27,0015.42,0003.98
2021-09-28 02:51:00,,0824.3,5.01,0.00,29.2,27.1,00.0,38.3,30.9,12.4,0002.2,0005.28,0016.08,0003.98
2021-09-28 02:52:00,,0824.4,4.99,0.00,29.2,27.4,00.0,38.3,31.0,12.4,0002.3,0005.25,0016.68,0003.97
2021-09-28 02:53:00,,0824.4,5.01,0.00,29.3,27.7,00.0,38.3,31.0,12.4,0001.7,0005.26,0017.63,0003.97
2021-09-28 02:54:00,,0824.4,4.99,0.00,29.3,28.0,00.0,38.3,31.1,12.4,0001.4,0005.29,0017.93,0003.96
2021-09-28 02:55:00,,0824.3,5.00,0.00,29.3,28.2,00.0,38.3,31.2,12.4,0001.0,0005.25,0017.87,0003.96
2021-09-28 02:56:00,,0824.4,5.01,0.00,29.4,28.3,00.0,38.4,31.2,12.4,0001.0,0005.22,0018.96,0003.97
2021-09-28 02:57:00,,0824.4,5.00,0.00,29.4,28.5,00.0,38.4,31.3,12.3,0001.4,0005.30,0018.77,0003.98
2021-09-28 02:58:00,,0824.4,4.98,0.00,29.5,28.6,00.0,38.4,31.3,12.2,0001.4,0005.33,0019.46,0004.00
2021-09-28 02:59:00,,0824.4,5.00,0.00,29.5,28.7,00.0,38.4,31.4,12.1,0001.1,0005.32,0019.34,0004.01
